Lid_Strength_Index
12 13 14 13 13 14 15 16 16 14 13 13 13 14 12 11 13 12 12 11 11 11 9 10 11 10 10 9 8 8 7 6 6 7 7 7 7 8 9 9 9 9 8 8
14 15 12 12 13 13 15 15 15 14 13 13 14 14 12 12 11 10 10 10 10 10 11 11 11 11 10 9 8 8 7 7 6 5 8 8 9 10 10 11 11 10 9 9
14 13 12 12 14 14 15 15 15 14 14 14 15 16 14 12 12 11 11 10 10 10 9 10 12 12 11 10 9 8 7 7 7 6 11 11 11 11 12 12 12 12 11 11
13 12 12 13 14 13 16 13 14 14 15 17 15 19 15 13 13 12 11 11 10 10 10 11 12 12 11 10 9 8 7 8 7 9 9 9 9 11 11 11 12 13 12 13
14 13 13 13 13 12 14 13 14 15 15 16 17 17 16 15 14 12 11 10 10 10 11 11 12 11 11 10 9 8 8 8 8 9 8 9 10 11 11 12 13 14 14 14
13 12 12 12 12 12 12 13 14 15 15 19 16 16 17 16 13 12 11 10 10 11 12 12 12 12 12 11 9 9 9 9 9 9 9 9 9 13 13 14 15 15 15 16
14 13 12 11 13 12 13 14 18 19 20 19 17 17 14 14 13 12 11 10 11 11 12 12 13 13 13 11 10 9 9 9 10 10 10 9 11 12 12 14 15 16 16 17
16 17 13 12 12 13 14 14 17 21 22 20 18 19 16 13 12 12 12 12 12 12 12 12 13 13 13 12 11 10 9 9 11 11 11 11 12 12 13 13 14 15 15 16
17 16 13 13 12 11 14 15 13 16 24 21 18 17 14 13 13 12 12 12 12 12 12 12 13 14 13 12 11 10 10 10 11 11 12 12 13 13 13 14 15 16 16 17
14 17 14 14 12 13 13 12 16 17 22 24 19 19 17 15 13 12 12 12 12 12 12 13 14 14 13 12 11 10 10 10 11 11 12 13 13 13 14 15 16 17 17 18
13 15 17 15 15 15 14 15 15 15 17 20 22 18 15 13 13 13 12 12 12 12 12 12 14 14 13 13 12 11 11 11 12 12 13 14 14 14 15 16 16 17 18 18
12 13 17 16 15 15 16 15 14 17 20 19 19 16 14 13 12 12 12 12 12 12 12 13 14 14 14 13 13 12 11 13 13 13 13 14 14 15 16 16 17 17 18 18
11 13 20 16 16 17 16 16 15 16 18 19 19 16 14 14 13 13 12 12 12 12 13 14 15 15 15 14 13 13 12 13 14 14 14 14 15 16 16 16 17 18 18 19
9 12 15 17 16 15 17 16 14 14 17 16 17 14 12 13 13 12 12 12 12 12 13 14 15 15 15 14 14 14 13 13 14 15 15 15 15 16 16 16 17 18 18 19
9 15 13 12 13 14 15 15 14 14 14 16 14 14 13 11 11 11 10 12 12 12 13 14 14 14 15 15 15 14 14 14 14 15 15 15 16 16 16 17 18 18 18 18
10 14 13 15 12 12 14 14 14 14 13 13 13 13 10 10 12 12 11 10 11 12 12 12 12 14 15 15 15 14 14 14 15 15 15 15 16 17 17 17 18 18 19 19
12 13 15 17 13 14 17 14 13 13 13 13 15 12 10 11 11 11 11 11 11 10 10 10 11 13 14 14 14 15 14 14 15 15 15 16 16 17 17 18 18 19 19 19
12 13 14 16 15 21 13 10 10 11 11 11 11 10 9 9 9 10 9 10 10 10 10 10 10 11 12 13 15 14 15 15 16 15 16 16 17 17 17 18 18 19 19 19
9 12 15 17 18 15 14 12 13 13 13 9 10 9 9 8 12 10 9 10 9 9 10 10 10 11 12 14 15 15 16 16 16 16 16 16 17 17 18 18 18 18 19 19
10 10 13 15 19 20 14 11 11 11 15 10 10 9 9 10 13 10 11 12 11 11 12 12 13 13 13 14 16 16 17 17 17 16 16 16 17 17 18 18 18 18 18 18
14 14 16 16 17 15 12 14 12 16 14 16 14 10 12 11 9 10 12 11 13 13 13 14 14 14 15 16 16 17 18 17 17 17 17 17 17 17 17 17 17 18 18 18
14 15 15 15 17 19 12 13 13 11 15 15 14 12 12 11 11 12 13 13 13 14 14 15 16 16 17 17 17 18 18 18 18 18 18 18 18 17 17 17 18 17 17 18
15 12 14 14 14 10 11 10 9 10 11 13 13 12 13 13 13 13 13 14 14 14 15 16 17 18 18 19 18 18 19 18 18 19 19 18 17 17 16 17 17 17 17 18
11 10 12 12 13 12 10 10 12 12 12 13 12 12 13 13 13 14 14 14 15 17 18 19 18 19 19 20 19 19 19 18 18 18 17 17 17 16 16 16 16 16 16 17
12 11 12 13 11 11 10 11 10 10 11 13 13 13 13 13 14 14 15 17 17 18 18 19 19 19 19 19 18 17 15 15 16 16 16 16 16 15 15 16 15 15 15 14
10 11 12 12 10 10 10 12 12 12 11 12 13 14 13 13 13 15 16 16 16 16 18 18 19 19 18 19 19 18 16 16 16 17 17 16 16 16 17 17 19 16 16 14